Location: Laverne
(36.7100°N, 99.8930°W)
Time: 00:51:34
(UTC-05:00)

Daily predictions for brighter satellites

Satellite Brightness Start Highest point End
(mag) Time Altitude Azimuth Time Altitude Azimuth Time Altitude Azimuth
CZ-2C R/B 4.5 00:00:25 10° NNE 00:02:27 24° NNE 00:02:27 24° NNE
ATLAS 5 CENTAUR R/B 3.6 00:13:26 10° NNW 00:17:13 39° N 00:17:13 39° N
Cosmos 1943 Rocket 4.4 00:57:14 10° NNW 00:58:56 20° NW 00:58:56 20° NW
Lacrosse 5 rocket 4.4 03:06:15 13° NNE 03:06:15 13° NNE 03:06:48 10° NNE
CZ-2D R/B 3.8 03:04:11 10° NNE 03:07:19 28° ENE 03:07:19 28° ENE
ATLAS 3B R/B 4.2 03:17:59 26° ESE 03:18:03 26° ESE 03:23:38 10° ENE
Cosmos 1980 Rocket 3.3 03:18:21 10° N 03:23:20 39° NE 03:23:20 39° NE
Cosmos 1697 Rocket 4.1 03:19:57 10° NNW 03:23:01 33° N 03:23:01 33° N
Exosat Rocket 4.4 03:24:35 10° NNW 03:30:11 74° NNW 03:30:11 74° NNW
Cosmos 2082 Rocket 3.3 03:34:17 37° N 03:34:17 37° N 03:37:54 10° NNE
Resurs 1-4 Rocket 3.0 03:36:09 10° NNE 03:39:50 46° NNE 03:39:50 46° NNE
Cosmos 1092 Rocket 4.5 03:42:16 10° NNW 03:46:55 51° NNW 03:46:55 51° NNW
Cosmos 2322 Rocket 4.5 03:48:16 10° N 03:52:34 22° ENE 03:56:50 10° ESE
Cosmos 1898 Rocket 4.2 03:50:23 10° N 03:55:21 51° ENE 03:55:21 51° ENE
Cosmos 1833 Rocket 4.2 04:06:54 25° NW 04:06:54 25° NW 04:10:37 10° N
SL-16 R/B 2.8 04:08:01 56° WNW 04:08:01 56° WNW 04:13:13 10° NNW
Cosmos 468 Rocket 4.4 04:14:21 57° NNW 04:14:21 57° NNW 04:18:48 10° NNE
Cosmos 2228 4.1 04:10:02 10° N 04:13:35 43° ENE 04:13:35 43° ENE
Cosmos 1375 Rocket 4.3 04:15:08 78° SSW 04:15:38 89° ESE 04:22:13 10° NNE
Cosmos 2058 Rocket 3.9 04:12:25 10° N 04:16:42 46° E 04:16:45 46° E
Cosmos 990 Rocket 4.5 04:12:30 10° N 04:17:35 57° ENE 04:19:09 40° SE
ARIANE 5 R/B 2.6 04:14:11 10° N 04:18:54 69° NNW 04:18:54 69° NNW
Spot 4 Rocket 4.2 04:17:25 10° N 04:21:59 62° NW 04:21:59 62° NW
USA 238 DEB 3.6 04:21:56 63° SSW 04:23:09 84° ESE 04:30:08 10° NNE
USA 238 3.6 04:22:01 63° SSW 04:23:15 83° ESE 04:30:14 10° NNE
Cosmos 1805 4.5 04:20:04 10° N 04:23:18 40° ENE 04:23:18 40° ENE
Cosmos 1814 Rocket 3.9 04:24:22 83° NNE 04:24:22 83° NNE 04:29:22 10° NNE
SJ 16-02 4.1 04:27:56 10° NNE 04:30:57 18° ENE 04:33:56 10° ESE
Cosmos 1892 Rocket 4.2 04:33:11 48° NNW 04:33:11 48° NNW 04:36:32 10° N
Cosmos 2150 Rocket 4.4 04:32:15 10° NNW 04:37:42 65° ENE 04:43:05 10° SSE
Cosmos 2180 Rocket 4.5 04:38:11 56° SW 04:39:16 66° W 04:45:38 10° N
Cosmos 2298 Rocket 4.0 04:39:58 10° NNW 04:45:19 86° ENE 04:48:51 22° SSE
Cosmos 2279 Rocket 4.3 04:45:52 44° W 04:46:24 45° W 04:52:23 10° N
CZ-2D R/B 3.4 04:44:37 10° NNW 04:48:38 25° WNW 04:48:38 25° WNW
Cosmos 841 Rocket 3.4 04:49:57 61° WSW 04:50:41 71° WNW 04:55:54 10° NNE
Cosmos 292 Rocket 3.6 04:51:33 62° SSW 04:52:21 88° WNW 04:57:11 10° NNE
Cosmos 1733 4.3 04:52:04 10° N 04:55:47 44° E 04:58:42 15° SSE
Cosmos 1758 3.7 04:54:07 10° N 04:58:04 61° E 05:00:06 26° SSE
NOSS 3-2 (C) 3.7 04:57:40 31° S 05:00:26 63° ESE 05:06:42 10° NE
Cosmos 540 Rocket 3.4 05:00:37 38° S 05:02:36 82° ESE 05:07:45 10° NNE
ADEOS 3.8 04:59:13 10° N 05:04:14 50° WNW 05:05:22 42° WSW
ADEOS II 2.0 04:58:58 10° NNE 05:04:15 85° WNW 05:06:37 34° SSW
Cosmos 2360 Rocket 3.8 04:59:55 10° N 05:05:04 36° ENE 05:10:12 10° SE
Cosmos 1980 Rocket 3.7 05:02:48 10° NW 05:05:01 19° WNW 05:05:01 19° WNW
ATLAS 3B R/B 2.9 05:05:14 34° WSW 05:08:19 59° NW 05:15:12 10° NNE
Helios 1A Rocket 4.2 05:04:47 10° NNW 05:07:54 27° WNW 05:07:54 27° WNW
Meteosat 1 Rocket2 4.5 05:09:03 33° SW 05:10:57 42° S 05:18:53 10° ESE
Cosmos 44 3.4 05:08:27 10° NW 05:13:41 66° WSW 05:19:01 10° SSE
H-II Stage 2 3.7 05:12:09 26° SSW 05:14:14 37° SSE 05:29:47 10° E
CZ-2D R/B 4.4 05:12:20 10° N 05:15:55 30° WNW 05:15:55 30° WNW
NOSS 3-2 (A) 3.4 05:13:52 34° SW 05:16:33 71° WNW 05:22:59 10° NNE
Okean O Rocket 3.8 05:16:13 10° NE 05:19:46 24° E 05:23:16 10° SSE
Resurs 1-4 Rocket 4.1 05:18:27 10° NW 05:20:33 12° WNW 05:20:55 12° WNW
PSLV R/B 2.7 05:20:48 81° W 05:20:55 87° NNW 05:23:54 10° ENE
UNKNOWN OBJECT B 4.2 05:18:20 10° NNW 05:21:01 23° WNW 05:21:01 23° WNW
SL-16 R/B 2.1 05:16:36 10° NNW 05:22:12 64° WSW 05:27:47 10° S
BREEZE-M DEB (TANK) 1.8 05:25:50 52° NNW 05:25:50 52° NNW 05:28:01 10° NE
Cosmos 1470 2.7 05:23:23 10° N 05:27:23 87° E 05:31:20 10° S
CENTAUR R/B 3.5 05:22:36 10° S 05:27:57 41° ESE 05:34:00 10° NE
Delta 2 Rocket 4.3 05:26:02 29° SW 05:28:54 58° SSE 05:34:21 10° E
USA 215 3.2 05:24:50 10° NE 05:31:23 81° NW 05:35:59 21° SW
Cosmos 1378 3.1 05:30:00 33° SSW 05:31:27 59° W 05:35:10 10° N
Cosmos 2266 Rocket 4.2 05:27:35 10° NNW 05:33:24 48° W 05:39:17 10° SSW
DNEPR-1 R/B 4.2 05:31:58 28° W 05:33:29 39° NW 05:37:43 10° NNE
CZ-4B R/B 3.2 05:30:18 10° NNE 05:34:26 65° E 05:38:18 10° S
PSLV R/B 3.4 05:31:48 10° N 05:36:00 83° WNW 05:39:27 15° SSW
Cosmos 2322 Rocket 2.3 05:31:28 10° NNW 05:36:52 49° WSW 05:42:14 10° S
Cosmos 1707 2.6 05:36:49 20° SSW 05:39:22 67° W 05:43:15 10° N
SEDSat Delta rocket 4.3 05:35:40 22° WSW 05:39:34 47° S 05:46:02 10° ESE
Aureole 2 Rocket 2.6 05:36:03 10° NNW 05:39:48 76° ENE 05:43:16 10° SSE
USA 161 4.2 05:38:26 10° SE 05:40:56 24° ENE 05:43:23 10° NNE
Cosmos 1833 4.3 05:40:43 18° SW 05:44:59 61° WNW 05:50:44 10° NNE
Cosmos 44 Rocket 3.6 05:42:17 10° NW 05:47:14 47° WSW 05:52:11 10° S
ERBS 2.5 05:46:30 26° WSW 05:48:07 55° NW 05:51:28 10° NNE
Cosmos 1812 Rocket 3.7 05:43:55 10° NNW 05:48:17 55° W 05:52:36 10° S
Cosmos 1602 Rocket 4.5 05:48:31 21° WSW 05:50:22 28° WNW 05:54:08 10° NNW
Cosmos 1125 Rocket 3.5 05:45:04 10° NNW 05:50:24 81° WSW 05:55:40 10° SSE
Cosmos 1758 Rocket 3.5 05:52:27 10° S 05:56:46 87° E 06:01:08 10° N
IDEFIX/ARIANE 42P 4.5 05:53:50 10° NE 05:58:26 31° E 06:03:01 10° SSE
PAYLOAD B 4.5 05:54:24 10° NNE 06:00:02 75° ESE 06:05:37 10° S
BREEZE-M DEB 3.4 05:58:57 23° SW 06:00:10 72° SE 06:02:46 10° NE
Meteor 1-31 Rocket 3.2 05:57:33 10° NNE 06:01:23 62° E 06:05:11 10° S
CZ-4B R/B 3.6 05:57:52 10° NNE 06:03:23 66° ESE 06:08:45 10° S
ATLAS CENTAUR R/B 1.9 05:59:05 10° NNW 06:03:35 75° ENE 06:08:19 10° SE
PSLV R/B 3.9 06:02:19 10° N 06:06:02 50° WNW 06:09:39 10° SSW
Cosmos 1953 3.5 06:03:57 10° NW 06:07:12 23° W 06:10:25 10° SW
Meteor 1-28 Rocket 3.4 06:04:54 10° SSE 06:08:37 75° ENE 06:12:22 10° N
Cosmos 1400 Rocket 3.0 06:05:08 10° S 06:09:01 73° E 06:12:59 10° NNE
Cosmos 372 Rocket 4.2 06:04:15 10° NNW 06:09:14 48° WSW 06:14:10 10° S
SJ 16-02 1.9 06:05:36 10° NW 06:09:38 36° W 06:13:40 10° SSW
Meteor PRIRODA 3.7 06:06:30 10° NNE 06:10:13 84° ESE 06:13:56 10° S
Cosmos 2237 4.2 06:15:27 10° NNW 06:21:10 74° WSW 06:26:50 10° SSE
Cosmos 2322 3.7 06:15:33 10° NNW 06:21:15 70° WSW 06:26:55 10° SSE
BREEZE-M DEB (TANK) 3.0 06:19:36 10° SW 06:23:32 84° SE 06:27:30 10° NE
CZ-4B DEB 4.3 06:21:07 10° N 06:26:36 64° WNW 06:32:02 10° SSW
